Regional Weather Roundup
Issued by NWS Kansas City/Pleasant Hill, MO

Home | Current Version | Previous Version | Graphics & Text | Print | Product List | Glossary Off
Versions: 1 2 3 4 5 6 7 8 9 10 11 12 13 14 15 16 17 18 19 20 21 22 23 24 25 26 27 28 29 30 31 32 33 34 35 36 37 38 39 40 41 42 43 44 45 46 47 48 49 50

636
ASUS43 KEAX 241510
RWREAX

WEATHER ROUNDUP FOR EASTERN KANSAS AND NORTHWEST MISSOURI
NATIONAL WEATHER SERVICE KANSAS CITY/PLEASANT HILL MO
1000 AM CDT TUE MAY 24 2016

KSZ040-057-103>105-MOZ028-029-037-043-241600-
...KANSAS CITY METROPOLITAN AREA...

CITY           SKY/WX    TMP DP  RH WIND       PRES   REMARKS
K.C. INTL      LGT RAIN  65  63  93 W13G25    29.99R
K.C. DOWNTOWN  CLOUDY    69  64  84 SW8       29.99R
LEES SUMMIT    CLOUDY    68  64  87 S12       29.97R
OLATHE - IXD   TSTM      68  64  87 NW10      30.01R
OLATHE - OJC   PTSUNNY   67  64  90 W9        30.00R
LAWRENCE       CLOUDY    66  62  87 SW7       30.04R

$$

MOZ001>008-011>017-020>025-030>033-038>040-044>046-053-054-241600-
...NORTHERN AND CENTRAL MISSOURI...

CITY           SKY/WX    TMP DP  RH WIND       PRES   REMARKS
ST. JOSEPH     CLOUDY    68  61  78 S9        29.98R
MOSBY          CLOUDY    68  64  88 CALM      29.95R
WARRENSBURG    CLOUDY    64  63  94 SE9       29.96R
WHITEMAN AFB   CLOUDY    66  66 100 S10       29.96R
CLINTON        CLOUDY    64  64 100 SE8       29.97F THUNDER FOG
SEDALIA        CLOUDY    68  66  93 S8        29.99F
WARSAW         NOT AVBL
CHILLICOTHE      N/A     68  64  87 S8        29.93F
KIRKSVILLE     CLOUDY    71  64  78 S8        29.98R

$$

MOZ041-047>049-056>058-063>065-088>090-097-241600-
...EASTERN AND SOUTHERN MISSOURI...

CITY           SKY/WX    TMP DP  RH WIND       PRES   REMARKS
ST. LOUIS INTL PTSUNNY   77  60  55 S9        30.02R
SPIRIT OF STL  PTSUNNY   77  62  59 S7        29.99S
COLUMBIA       CLOUDY    73  64  73 S7        30.00R
JEFFERSON CITY CLOUDY    73  62  68 S5        29.99S
ROLLA          CLOUDY    71  63  75 S10       30.01R
OSAGE BEACH      N/A    N/A N/A N/A VRB7        N/A
SPRINGFIELD    CLOUDY    72  65  78 S10       29.98S
BRANSON        PTSUNNY   72  66  83 S6        30.01F
JOPLIN         MOSUNNY   79  69  71 S22       29.93F
WEST PLAINS    CLOUDY    69  61  75 SE7       30.05R

$$

IAZ060-094-KSZ022-034>040-054-083-096-NEZ052-066-093-241600-
...KANSAS...SOUTHEAST NEBRASKA AND IOWA...

CITY           SKY/WX    TMP DP  RH WIND       PRES   REMARKS
TOPEKA         LGT RAIN  65  59  81 W6        30.02R
MANHATTAN      LGT RAIN  64 N/A N/A VRB3      30.00R
EMPORIA        CLOUDY    65  59  81 NE7       29.97F
CHANUTE        LGT RAIN  65  62  90 CALM      29.96S
WICHITA        TSTM      64  58  80 NE18      29.96S
OMAHA          CLOUDY    66  63  90 S6        29.91R
LINCOLN        PTSUNNY   65  60  84 E8        29.88S
FALLS CITY     LGT RAIN  63  59  87 W13       29.94S
LAMONI         CLOUDY    70  64  81 SW7       29.92R
DES MOINES     CLOUDY    68  61  78 S5        29.91S

$$





USA.gov is the U.S. government's official web portal to all federal, state and local government web resources and services.